EW4415 Weather Reports


time (UTC)temp
C
wind
direction
speed
KPH
gust
KPH
rain 1hr
cm
rain 24hr
cm
rain mn
cm
humidity
%
barometer
mb
20260906051519 9 252 0.0 3.2 0.00 0.00 0.00 11 1003.8
20260906050015 9 32 0.0 12.9 0.00 0.00 0.00 1 1003.7
20260906044513 9 274 0.0 4.8 0.00 0.00 0.00 1 1003.6
20260906043016 10 337 0.0 1.6 0.00 0.00 0.00 1 1003.5
20260906041503 10 295 0.0 11.3 0.00 0.00 0.00 1 1003.2
20260906040059 10 311 0.0 0.0 0.00 0.00 0.00 1 1003.1
20260906034603 10 304 0.0 0.0 0.00 0.00 0.00 1 1002.8
20260906033050 10 326 0.0 1.6 0.00 0.00 0.00 1 1002.5
20260906031544 10 64 0.0 0.0 0.00 0.00 0.00 1 1002.3
20260906030043 10 285 0.0 0.0 0.00 0.00 0.00 1 1002.2
20260906024539 10 212 0.0 1.6 0.00 0.00 0.00 1 1002.1
20260906023033 10 265 0.0 0.0 0.00 0.00 0.00 1 1001.9
20260906021537 10 262 0.0 0.0 0.00 0.00 0.00 1 1001.7
20260906020024 10 67 0.0 0.0 0.00 0.00 0.00 1 1001.5
20260906014519 10 30 0.0 0.0 0.00 0.00 0.00 1 1001.4
20260906013015 10 355 0.0 0.0 0.00 0.00 0.00 1 1001.3
20260906011511 10 300 0.0 0.0 0.00 0.00 0.00 1 1001.1
20260906010006 10 298 0.0 0.0 0.00 0.00 0.00 1 1001.0
20260906004502 10 300 0.0 0.0 0.00 0.00 0.00 1 1000.9
20260906003058 10 307 0.0 1.6 0.00 0.00 0.00 1 1000.7
20260906001602 10 32 0.0 0.0 0.00 0.00 0.00 1 1000.6
20260906000049 9 32 0.0 0.0 0.00 0.00 0.00 1 1000.5
20260905234545 9 223 0.0 0.0 0.00 0.00 0.00 1 1000.2
20260905233041 9 223 0.0 0.0 0.00 0.00 0.00 1 1000.1
20260905231535 9 223 0.0 0.0 0.00 0.00 0.00 1 1000.1
20260905230034 9 223 0.0 0.0 0.00 0.00 0.00 1 1000.0
20260905224526 10 224 0.0 0.0 0.00 0.00 0.00 1 999.9
20260905223039 10 224 0.0 0.0 0.00 0.00 0.00 1 999.8
20260905221521 10 24 0.0 0.0 0.00 0.00 0.00 1 999.7
20260905220013 10 32 0.0 0.0 0.00 0.00 0.00 1 999.6
20260905214512 10 32 0.0 0.0 0.00 0.00 0.00 1 999.5
20260905213004 10 32 0.0 0.0 0.00 0.00 0.00 1 999.4
20260905211609 11 32 0.0 0.0 0.00 0.00 0.00 1 999.3
20260905210115 11 32 0.0 0.0 0.00 0.00 0.00 1 999.1
20260905204550 11 32 0.0 0.0 0.00 0.00 0.00 1 998.9
20260905203047 11 32 0.0 0.0 0.00 0.00 0.00 1 998.8
20260905201542 11 32 0.0 0.0 0.00 0.00 0.00 1 998.6
20260905200106 11 32 0.0 0.0 0.00 0.00 0.00 1 998.5
20260905194534 11 32 0.0 0.0 0.00 0.00 0.00 1 998.5
20260905193036 11 32 0.0 0.0 0.00 0.00 0.00 1 998.3
20260905191526 11 32 0.0 0.0 0.00 0.00 0.00 1 998.2
20260905190025 11 32 0.0 0.0 0.00 0.00 0.00 1 998.2
20260905184530 12 32 0.0 0.0 0.00 0.03 0.00 1 998.2
20260905183011 12 32 0.0 0.0 0.00 0.03 0.00 1 998.1
20260905181508 12 32 0.0 0.0 0.00 0.03 0.00 1 998.0
20260905180008 12 32 0.0 0.0 0.00 0.03 0.00 1 998.0
20260905174608 12 32 0.0 0.0 0.00 0.03 0.00 1 997.8
20260905173055 12 32 0.0 0.0 0.00 0.03 0.00 1 997.8
20260905171550 12 32 0.0 0.0 0.00 0.03 0.00 1 997.7
20260905170046 12 32 0.0 0.0 0.00 0.03 0.00 1 997.5
20260905164544 12 32 0.0 0.0 0.00 0.03 0.00 1 997.3
20260905163038 13 32 0.0 0.0 0.00 0.03 0.00 1 997.2
20260905161532 13 32 0.0 0.0 0.00 0.03 0.00 1 997.0
20260905160028 13 32 0.0 0.0 0.00 0.03 0.00 1 996.8
20260905154527 13 32 0.0 0.0 0.00 0.03 0.00 1 996.8
20260905153027 13 32 0.0 0.0 0.00 0.03 0.00 5 996.6
20260905151516 14 32 0.0 0.0 0.00 0.03 0.00 19 996.6
20260905150019 14 32 0.0 0.0 0.00 0.03 0.00 33 996.5
20260905144512 15 32 0.0 3.2 0.00 0.03 0.00 41 996.2
20260905143002 15 312 0.0 1.6 0.00 0.03 0.00 19 996.0
20260905141558 15 311 0.0 0.0 0.00 0.03 0.00 29 995.9
20260905140054 15 279 0.0 0.0 0.00 0.03 0.00 40 995.8
20260905134551 16 263 0.0 6.4 0.00 0.20 0.00 40 995.7
20260905133044 16 295 0.0 6.4 0.00 0.20 0.00 36 995.8
20260905131551 15 323 0.0 4.8 0.00 0.20 0.00 26 995.7
20260905130036 15 281 0.0 1.6 0.00 0.20 0.00 15 995.7
20260905124534 15 281 0.0 0.0 0.00 0.20 0.00 24 995.6
20260905123053 15 296 0.0 4.8 0.00 0.20 0.00 39 995.5
20260905121522 15 310 0.0 3.2 0.00 0.20 0.00 21 995.4
20260905120024 15 141 0.0 0.0 0.00 0.20 0.00 4 995.3
20260905114519 15 327 0.0 0.0 0.00 0.20 0.00 1 995.4
20260905113010 15 330 0.0 0.0 0.00 0.20 0.00 1 995.3
20260905111505 15 311 0.0 0.0 0.00 0.20 0.00 1 995.2
20260905110004 15 279 0.0 1.6 0.00 0.20 0.00 1 995.3
20260905104558 15 256 0.0 0.0 0.00 0.20 0.00 1 995.1
20260905103058 15 256 0.0 0.0 0.00 0.20 0.00 1 994.9
20260905101548 16 5 0.0 4.8 0.00 0.20 0.00 1 994.8
20260905100054 16 321 0.0 0.0 0.00 0.20 0.00 1 994.7
20260905094540 15 267 0.0 0.0 0.00 0.20 0.00 1 994.6
20260905093035 15 231 0.0 0.0 0.00 0.20 0.00 1 994.7
20260905091540 15 225 0.0 0.0 0.00 0.20 0.00 1 994.7
20260905090026 14 254 0.0 3.2 0.00 0.20 0.00 1 994.5
20260905084522 13 309 0.0 0.0 0.00 0.20 0.00 1 994.5
20260905083018 13 245 0.0 0.0 0.00 0.20 0.00 1 994.5
20260905081515 13 261 0.0 1.6 0.00 0.20 0.00 1 994.4
20260905080022 12 279 0.0 0.0 0.00 0.20 0.00 1 994.4
20260905074504 12 284 0.0 1.6 0.00 0.20 0.00 1 994.4
20260905073059 12 291 0.0 0.0 0.00 0.20 0.00 1 994.3
20260905071600 12 292 0.0 0.0 0.00 0.20 0.00 1 994.2
20260905070055 11 292 0.0 0.0 0.00 0.20 0.00 1 994.2
20260905064553 10 292 0.0 0.0 0.00 0.20 0.00 1 994.1
20260905063044 10 292 0.0 0.0 0.00 0.20 0.00 1 994.1
20260905061540 8 292 0.0 0.0 0.00 0.20 0.00 1 994.0
20260905060046 7 292 0.0 0.0 0.00 0.20 0.00 1 994.0
20260905054537 6 292 0.0 0.0 0.00 0.20 0.00 1 994.0
20260905053027 6 292 0.0 0.0 0.00 0.20 0.00 1 994.0